Regional Weather Roundup
Issued by NWS

Home | Current Version | Previous Version | Text Only | Print | Product List | Glossary On
Versions: 1 2 3 4 5 6 7 8 9 10 11 12 13 14 15 16 17 18 19 20 21 22 23 24 25 26 27 28
000
ASUS45 KSLC 290610
RWRUT

UTAH REGIONAL WEATHER ROUNDUP
NATIONAL WEATHER SERVICE SALT LAKE CITY UT
1200 AM MDT FRI JUL 29 2016

UTZ001>011-023>025-290700-

NORTHERN UTAH

CITY           SKY/WX    TMP DP  RH WIND       PRES   REMARKS
BRIGHAM CITY     N/A     76  38  25 W3        30.05R
HILL AFB       CLEAR     79  36  21 SE12      30.08S
LOGAN          CLEAR     64  49  57 NW5       30.07S
OGDEN          CLEAR     77  38  24 S8        30.05S
PROVO AIRPORT  CLEAR     72  46  40 SE6       30.06R
SALT LAKE CITY CLEAR     79  44  28 SW6       30.03S
VERNAL         CLEAR     77  30  17 NW10      30.11R
WENDOVER       CLEAR     84  36  17 NE8       30.05S
HEBER CITY     CLEAR     61  37  41 E5        30.16S
WEST JORDAN    CLEAR     81  39  22 CALM      30.08

$$

UTZ012>022-026-027-290700-

SOUTHERN/CENTRAL UTAH

CITY           SKY/WX    TMP DP  RH WIND       PRES   REMARKS
BLANDING       MOCLDY    76  30  18 SE6       30.21R
BRYCE CANYON   PTCLDY    64  37  36 W9        30.36S
CEDAR CITY     PTCLDY    79  39  23 SE7       30.17S
DELTA          PTCLDY    81  32  17 NE7       30.05S
MILFORD        PTCLDY    79  37  22 SW9       30.08S
MOAB/CYNLANDS  PTCLDY    81  26  13 CALM      29.99S
PRICE          CLEAR     75  26  16 N10       30.17S
ST GEORGE      CLEAR     95  43  16 N5        29.93R HX  91

$$

REGIONAL REPORTS     COLORADO/ARIZONA

CITY           SKY/WX    TMP DP  RH WIND       PRES   REMARKS
CRAIG, CO      CLEAR     61  37  41 CALM      30.17S
GRAND JUNCTION CLEAR     79  30  16 SW3       30.02S
RIFLE          CLEAR     71  34  25 SE8       30.12R
MONTROSE       CLEAR     75  36  24 SE13      30.14S
CORTEZ         PTCLDY    69  40  34 E6        30.15S
PAGE, AZ       CLEAR     91  39  16 NW6       30.01R
GRAND CANYON   CLEAR     61  51  70 E3        30.29R
KINGMAN        MOCLDY    85  47  26 VRB3      29.98S
FLAGSTAFF      MOCLDY    71  41  33 N6        30.30F

$$

REGIONAL REPORTS    NEVADA/IDAHO/WYOMING

CITY           SKY/WX    TMP DP  RH WIND       PRES   REMARKS
LAS VEGAS, NV  MOCLDY   102  43  13 S9        29.83F HX  97
ELY            MOCLDY    75  30  19 S7        30.21S
ELKO           CLEAR     79  35  20 E7        30.10S
POCATELLO, ID  CLEAR     80  33  18 S13       30.05R
BURLEY         CLEAR     71  43  36 SW12      30.02S
EVANSTON, WY   CLEAR     71  28  20 SE5       30.30S
ROCK SPRINGS   CLEAR     65  41  41 NE13      30.27S
KEMMERER         N/A     61  23  23 N10       30.31S

$$




USA.gov is the U.S. government's official web portal to all federal, state and local government web resources and services.